SQ7FJB-10 Weather Reports


time (UTC)temp
C
wind
direction
speed
KPH
gust
KPH
rain 1hr
cm
rain 24hr
cm
rain mn
cm
humidity
%
barometer
mb
20260508063406 8 258 4.8 4.8 0.00 0.00 0.00 87 1324.9
20260508060354 8 294 3.2 3.2 0.00 0.00 0.00 87 1324.8
20260508053341 8 277 1.6 1.6 0.00 0.00 0.00 88 1324.5
20260508050316 8 330 3.2 3.2 0.00 0.00 0.00 86 1324.6
20260508043250 8 162 1.6 1.6 0.00 0.00 0.00 86 1324.3
20260508040250 8 222 1.6 1.6 0.00 0.00 0.00 87 1324.1
20260508033225 8 264 3.2 3.2 0.00 0.00 0.00 87 1323.8
20260508030225 8 288 3.2 3.2 0.00 0.00 0.00 88 1323.7
20260508023213 8 204 0.0 0.0 0.00 0.00 0.00 89 1323.7
20260508020148 8 342 3.2 3.2 0.00 0.00 0.00 90 1323.5
20260508013135 8 192 1.6 1.6 0.00 0.00 0.00 91 1323.5
20260508010122 8 336 3.2 3.2 0.00 0.00 0.00 91 1323.6
20260508003122 9 258 1.6 1.6 0.00 0.00 0.00 88 1323.3
20260508000109 9 258 1.6 1.6 0.00 0.00 0.00 87 1323.3
20260507233057 10 222 3.2 3.2 0.00 0.00 0.00 86 1323.1
20260507230045 10 282 3.2 3.2 0.00 0.00 0.00 85 1323.2
20260507223032 10 342 1.6 1.6 0.00 0.05 0.00 85 1323.2
20260507220031 10 36 1.6 1.6 0.00 0.05 0.00 85 1322.9
20260507213031 10 270 6.4 6.4 0.00 0.05 0.00 85 1322.8
20260507210019 10 276 3.2 3.2 0.00 0.05 0.00 85 1322.8
20260507203019 10 330 3.2 3.2 0.00 0.05 0.00 86 1322.7
20260507200006 10 282 1.6 1.6 0.00 0.05 0.00 86 1322.4
20260507192954 11 228 3.2 3.2 0.00 0.05 0.00 86 1322.2
20260507185954 11 252 1.6 1.6 0.00 0.05 0.00 87 1321.9
20260507182941 11 122 3.2 3.2 0.00 0.05 0.00 87 1321.1
20260507175929 12 322 4.8 4.8 0.00 0.05 0.00 86 1320.9
20260507172929 12 266 6.4 6.4 0.00 0.05 0.00 85 1320.6
20260507165916 13 306 1.6 1.6 0.00 0.05 0.00 85 1320.5
20260507162904 13 222 1.6 1.6 0.00 0.05 0.00 84 1320.0
20260507155851 14 246 3.2 3.2 0.00 0.05 0.00 84 1319.8
20260507152851 15 260 1.6 1.6 0.05 0.05 0.00 84 1319.5
20260507145839 15 84 0.0 0.0 0.05 0.05 0.00 83 1319.4
20260507142826 16 234 1.6 1.6 0.00 0.00 0.00 72 1319.4
20260507135826 16 270 4.8 4.8 0.00 0.00 0.00 69 1319.4
20260507132814 16 287 3.2 3.2 0.00 0.00 0.00 69 1319.4
20260507125814 17 294 0.0 0.0 0.00 0.00 0.00 66 1319.3
20260507122813 16 145 1.6 1.6 0.00 0.00 0.00 72 1319.4
20260507115801 16 207 0.0 0.0 0.00 0.00 0.00 76 1319.6
20260507112748 15 276 3.2 3.2 0.00 0.00 0.00 78 1319.6
20260507105747 13 186 0.0 0.0 0.00 0.00 0.00 87 1319.6
20260507102735 13 291 1.6 1.6 0.00 0.00 0.00 84 1319.3
20260507095734 13 324 3.2 3.2 0.00 0.00 0.00 86 1319.0
20260507092722 13 276 4.8 4.8 0.00 0.00 0.00 87 1318.6
20260507085722 13 234 4.8 4.8 0.00 0.00 0.00 84 1318.1
20260507082721 13 290 3.2 3.2 0.00 0.00 0.00 85 1317.8
20260507075709 13 60 6.4 6.4 0.00 0.00 0.00 84 1317.2
20260507072657 13 234 3.2 3.2 0.00 0.00 0.00 90 1316.8
20260507065632 13 288 4.8 4.8 0.00 0.00 0.00 90 1316.6